This is the latest recevied weather packets stored in our database for station/object WE8M. If no packets are shown the sender has not sent any weather packets the latest 10 day(s).
| Time | Temp. | Humidity | Pressure | Rain* | Wind** | Luminosity | Snow |
|---|---|---|---|---|---|---|---|
| 1778055793 | 8.33° C | 95% | 1007.7 hPa | 0 mm | - | - | - |
| 1778055490 | 8.89° C | 95% | 1007.3 hPa | 0 mm | - | - | - |
| 1778055188 | 8.89° C | 96% | 1007.2 hPa | 1.27 mm | - | - | - |
| 1778054886 | 8.89° C | 96% | 1007.2 hPa | 1.27 mm | - | - | - |
| 1778054280 | 8.89° C | 95% | 1007 hPa | 3.05 mm | - | - | - |
| 1778053068 | 10° C | 95% | 1007 hPa | 1.78 mm | - | - | - |
| 1778052766 | 10.56° C | 95% | 1006.7 hPa | 3.05 mm | - | - | - |
| 1778052463 | 11.11° C | 94% | 1006.3 hPa | 3.05 mm | - | - | - |
| 1778052160 | 12.22° C | 93% | 1006.5 hPa | 3.56 mm | - | - | - |
| 1778051858 | 13.89° C | 96% | 1006.5 hPa | 3.05 mm | - | - | - |
| 1778051556 | 13.89° C | 96% | 1006.3 hPa | 4.32 mm | - | - | - |
| 1778051252 | 13.89° C | 96% | 1006.2 hPa | 3.05 mm | - | - | - |
| 1778050949 | 13.89° C | 96% | 1006.2 hPa | 6.1 mm | - | - | - |
| 1778050647 | 13.89° C | 96% | 1006 hPa | 7.11 mm | - | - | - |
| 1778050040 | 13.89° C | 96% | 1006.2 hPa | 3.05 mm | - | - | - |
| 1778049434 | 13.89° C | 95% | 1006.5 hPa | 6.6 mm | - | - | - |
| 1778049131 | 13.89° C | 95% | 1006.5 hPa | 4.32 mm | - | - | - |
| 1778048830 | 13.89° C | 95% | 1006.6 hPa | 3.05 mm | - | - | - |
| 1778048526 | 14.44° C | 95% | 1006.6 hPa | 3.05 mm | - | - | - |
| 1778048222 | 14.44° C | 95% | 1006.7 hPa | 0 mm | - | - | - |
| 1778047920 | 14.44° C | 95% | 1006.7 hPa | 1.78 mm | - | - | - |
| 1778047619 | 14.44° C | 95% | 1006.6 hPa | 1.27 mm | - | - | - |
| 1778047315 | 14.44° C | 95% | 1006.7 hPa | 1.27 mm | - | - | - |
| 1778047012 | 14.44° C | 95% | 1006.4 hPa | 1.78 mm | - | - | - |
| 1778046709 | 14.44° C | 95% | 1006.7 hPa | 3.05 mm | - | - | - |
* Rain latest hour (hover to see other rain measurements)
** Current wind speed in m/s (hover to see current wind gust speed)